Regional Weather Roundup
Issued by NWS

Home | Current Version | Previous Version | Graphics & Text | Print | Product List | Glossary Off
Versions: 1 2 3 4 5 6 7 8 9 10 11 12 13 14 15 16 17 18 19 20 21 22 23 24 25 26 27 28 29 30 31 32 33 34 35 36 37 38 39 40 41 42 43 44 45 46 47 48 49 50

000
ASUS43 KMKX 301821
RWRWI

WISCONSIN REGIONAL WEATHER ROUNDUP
NATIONAL WEATHER SERVICE MILWAUKEE/SULLIVAN WI
100 PM CDT TUE AUG 30 2016

NOTE: "FAIR" INDICATES FEW OR NO CLOUDS BELOW 12,000 FEET WITH NO
SIGNIFICANT WEATHER AND/OR OBSTRUCTIONS TO VISIBILITY.

WIZ001-002-006>008-014>016-023>028-301900-
NORTHWEST WISCONSIN

CITY           SKY/WX    TMP DP  RH WIND       PRES   REMARKS
SUPERIOR ARPT  SUNNY     73  55  51 N5        30.17F
6HR MIN TEMP:  63; 6HR MAX TEMP:  74;

ASHLAND        SUNNY     74  55  51 VRB5      30.16F
6HR MIN TEMP:  65; 6HR MAX TEMP:  74;

HAYWARD        PTSUNNY   73  59  61 CALM      30.18F
6HR MIN TEMP:  64; 6HR MAX TEMP:  73;

SIREN          MOSUNNY   73  58  57 NW7       30.19F
6HR MIN TEMP:  62; 6HR MAX TEMP:  73; 6HR PCP:  0.01;

CUMBERLAND     PTSUNNY   70  59  68 CALM      30.19F
RICE LAKE      PTSUNNY   73  61  67 NW5       30.19S
6HR MIN TEMP:  65; 6HR MAX TEMP:  74;

CHETEK         NOT AVBL
LADYSMITH      CLOUDY    74  63  69 CALM      30.18F
6HR MIN TEMP:  63; 6HR MAX TEMP:  74;

EAU CLAIRE     PTSUNNY   79  66  64 N7        30.14F HX  81
6HR MIN TEMP:  67; 6HR MAX TEMP:  79;

MENOMONIE      CLOUDY    76  64  66 NW7       30.17S
6HR MIN TEMP:  66; 6HR MAX TEMP:  77;

NEW RICHMOND   CLOUDY    73  61  65 N3        30.19S
6HR MIN TEMP:  64; 6HR MAX TEMP:  74;

OSCEOLA        CLOUDY    73  63  71 NW5       30.21F
6HR MIN TEMP:  65; 6HR MAX TEMP:  73;

$$

WIZ003>005-009-010-017-018-301900-
NORTH CENTRAL WISCONSIN

CITY           SKY/WX    TMP DP  RH WIND       PRES   REMARKS
MANITOWISH WTR NOT AVBL
ARBOR VITAE    MOSUNNY   74  63  69 NW5       30.16F
6HR MIN TEMP:  63; 6HR MAX TEMP:  74;

WOODRUFF       MOSUNNY   74  63  69 NW5       30.16F
6HR MIN TEMP:  63; 6HR MAX TEMP:  74;

RHINELANDER    PTSUNNY   74  66  76 N3        30.16F
6HR MIN TEMP:  65; 6HR MAX TEMP:  74;

EAGLE RIVER    MOSUNNY   72  62  69 NW5       30.15F
6HR MIN TEMP:  64; 6HR MAX TEMP:  72;

LAND O LAKES   CLOUDY    73  60  65 CALM      30.16F
6HR MIN TEMP:  64; 6HR MAX TEMP:  73;

PHILLIPS       CLOUDY    72  63  73 N5        30.16S
6HR MIN TEMP:  62; 6HR MAX TEMP:  74;

TOMAHAWK       MOSUNNY   75  62  64 N3        30.15F
6HR MIN TEMP:  63; 6HR MAX TEMP:  76;

MEDFORD        MOSUNNY   75  69  80 NW8       30.15S
MERRILL        PTSUNNY   78  67  69 N6G16     30.13F HX  80
6HR MIN TEMP:  64; 6HR MAX TEMP:  80;

$$

WIZ029-030-035-036-043>047-301900-
CENTRAL WISCONSIN

CITY           SKY/WX    TMP DP  RH WIND       PRES   REMARKS
WAUSAU         MOSUNNY   80  64  58 NW8       30.11F HX  82
6HR MIN TEMP:  66; 6HR MAX TEMP:  81;

MOSINEE        NOT AVBL
MARSHFIELD     SUNNY     80  63  55 VRB5      30.13F HX  81
6HR MIN TEMP:  65; 6HR MAX TEMP:  81;

STEVENS POINT  MOSUNNY   80  60  51 CALM      30.13F HX  81
6HR MIN TEMP:  64; 6HR MAX TEMP:  80;

WAUPACA        PTSUNNY   86  60  40 NW7       30.10F HX  85
6HR MIN TEMP:  69; 6HR MAX TEMP:  86;

WAUTOMA        MOSUNNY   83  63  50 VRB5      30.11F HX  84
6HR MIN TEMP:  67; 6HR MAX TEMP:  83;

WISC RAPIDS    MOSUNNY   84  63  49 W8        30.14F HX  85
6HR MIN TEMP:  65; 6HR MAX TEMP:  84;

CAMP DOUGLAS   PTSUNNY   82  66  57 W8        30.13F HX  85
$$

WIZ011>013-019>022-031-037>040-048>050-301900-
NORTHEAST WISCONSIN

CITY           SKY/WX    TMP DP  RH WIND       PRES   REMARKS
ANTIGO         PTSUNNY   80  65  61 W6        30.13F HX  81
6HR MIN TEMP:  67; 6HR MAX TEMP:  80;

SHAWANO        SUNNY     86  63  46 CALM      30.09F HX  87
6HR MIN TEMP:  71; 6HR MAX TEMP:  86;

OCONTO         NOT AVBL
STURGEON BAY   SUNNY     82  72  71 N10       30.08F HX  87
6HR MIN TEMP:  69; 6HR MAX TEMP:  82;

GREEN BAY      MOSUNNY   81  70  69 S5        30.08F HX  84
6HR MIN TEMP:  68; 6HR MAX TEMP:  82;

MANITOWOC      MOSUNNY   80  72  76 CALM      30.08F HX  84
6HR MIN TEMP:  70; 6HR MAX TEMP:  81;

APPLETON       MOSUNNY   82  61  47 CALM      30.10F HX  83
CLINTONVILLE   MOSUNNY   84  61  45 SW7       30.09S HX  84
OSHKOSH        MOSUNNY   83  66  56 VRB7      30.09F HX  85
6HR MIN TEMP:  70; 6HR MAX TEMP:  84;

$$

WIZ032>034-041-042-053>061-301900-
SOUTHWEST WISCONSIN

CITY           SKY/WX    TMP DP  RH WIND       PRES   REMARKS
LA CROSSE      MOSUNNY   82  65  56 W8        30.14F HX  84
6HR MIN TEMP:  71; 6HR MAX TEMP:  82;

SPARTA         MOSUNNY   80  64  57 N3        30.15F HX  81
6HR MIN TEMP:  63; 6HR MAX TEMP:  80;

VIROQUA        MOSUNNY   79  63  57 N3        30.16F HX  80
6HR MIN TEMP:  69; 6HR MAX TEMP:  79;

BOSCOBEL       MOSUNNY   84  71  65 SW5       30.13F HX  89
6HR MIN TEMP:  71; 6HR MAX TEMP:  85;

PRAIRIE DU CHI PTSUNNY   80  69  67 W7        30.13F HX  83
6HR MIN TEMP:  70; 6HR MAX TEMP:  81;

PLATTEVILLE    PTSUNNY   81  73  77 W6        30.14F HX  86
6HR MIN TEMP:  70; 6HR MAX TEMP:  82;

$$

WIZ056-057-062-063-064-067-068-301900-
SOUTH CENTRAL WISCONSIN

CITY           SKY/WX    TMP DP  RH WIND       PRES   REMARKS
REEDSBURG      NOT AVBL
BARABOO/DELLS  MOSUNNY   82  63  52 W9        30.13F HX  83
6HR MIN TEMP:  69; 6HR MAX TEMP:  82;

LONE ROCK      MOSUNNY   82  70  66 W8        30.12F HX  86
6HR MIN TEMP:  71; 6HR MAX TEMP:  82;

MINERAL POINT  PTSUNNY   81  72  74 NW6       30.14F HX  84
MADISON        PTSUNNY   81  69  67 NW3       30.10F HX  84
6HR MIN TEMP:  69; 6HR MAX TEMP:  82; 6HR PCP:  0.13;

MIDDLETON      PTSUNNY   83  71  68 NW12      30.11F HX  88
6HR MIN TEMP:  69; 6HR MAX TEMP:  83;

WATERTOWN      CLOUDY    73  69  89 SE5       30.11F
6HR MIN TEMP:  68; 6HR MAX TEMP:  80; 6HR PCP:  0.32;

MONROE         PTSUNNY   81  68  65 CALM      30.12F HX  83
JANESVILLE     PTSUNNY   79  72  78 W6        30.11F HX  82
$$

WIZ051-052-058>065-066-070>072-301900-
SOUTHEAST WISCONSIN

CITY           SKY/WX    TMP DP  RH WIND       PRES   REMARKS
MILWAUKEE      PTSUNNY   84  71  65 VRB6      30.09F HX  89
6HR MIN TEMP:  73; 6HR MAX TEMP:  84; 6HR PCP:  0.01;

WAUKESHA       PTSUNNY   77  70  78 NW9       30.11F
MILWAUKEE/TIMM CLOUDY    81  66  61 NW9       30.10F HX  83
RACINE         LGT RAIN  78  72  81 S10       30.11F HX  80
6HR MIN TEMP:  73; 6HR MAX TEMP:  83; 6HR PCP:  0.01;

BURLINGTON     CLOUDY    80  69  68 W7        30.11F HX  83
6HR MIN TEMP:  65; 6HR MAX TEMP:  81;

KENOSHA        CLOUDY    83  72  69 W8        30.10F HX  88
6HR MIN TEMP:  70; 6HR MAX TEMP:  83; 6HR PCP: TRACE;

FOND DU LAC    MOSUNNY   84  65  52 NW6       30.09F HX  86
6HR MIN TEMP:  69; 6HR MAX TEMP:  85;

SHEBOYGAN      PTSUNNY   83  64  52 W6        30.09F HX  84
6HR MIN TEMP:  68; 6HR MAX TEMP:  83;

WEST BEND      MOSUNNY   81  70  69 W3        30.09F HX  84
JUNEAU         MOSUNNY   81  68  65 NW6       30.11F HX  83
6HR MIN TEMP:  67; 6HR MAX TEMP:  81;

$$

LSZ147-162-301900-
LAKE SUPERIOR

STATION/POSITION TIME  TEMP    WIND        PRES    WAVE
                       AIR SEA DIR/SP/G            HT/PER
                 (UTC) (F)     (DEG/KT/KT) (MB)    (FT/S)
W MID LAKE BUOY  1750   66 68  300/  4/  6 1020.4S   1/ 3
DEVILS ISLAND    1800   67     260/  3/  5 1021.4F
PORT WING        1700   67     310/  3/  4 1022.0F
SAXON HARBOR     1740   69      10/  4/  6 1021.3S
$$

LMZ867-665-643>646-301900-
LAKE MICHIGAN

STATION/POSITION TIME  TEMP    WIND        PRES    WAVE
                       AIR SEA DIR/SP/G            HT/PER
                 (UTC) (F)     (DEG/KT/KT) (MB)    (FT/S)
CHAMBERS ISLAND  1700   80     210/  3/  6 1018.3F
N MID LAKE BUOY  1750   72 72  250/  6/  6 1017.7F   1/ 3
NORTHPORT PIER   1700   76     320/ 10/ 11 1018.3F
SISTER BAY       1737   87     290/  6/  6   N/A
ALGOMA LAKESHORE 1715          330/  3/  5   N/A
KEWAUNEE LC1F1C2F2C3F3C4F4C5F5C6F6C7F7C8M1C9M2Ca!



USA.gov is the U.S. government's official web portal to all federal, state and local government web resources and services.